TimeCDT,TemperatureF,Dew PointF,Humidity,Sea Level PressureIn,VisibilityMPH,Wind Direction,Wind SpeedMPH,Gust SpeedMPH,PrecipitationIn,Events,Conditions,WindDirDegrees,DateUTC
12:15 AM,77.5,75.4,93,29.90,10.0,Calm,Calm,-,N/A,,Mostly Cloudy,0,2013-08-26 05:15:00
12:35 AM,76.3,75.2,96,29.89,7.0,ENE,6.9,-,N/A,,Mostly Cloudy,60,2013-08-26 05:35:00
12:55 AM,77.9,75.4,92,29.90,10.0,North,10.4,-,N/A,Rain,Light Rain,10,2013-08-26 05:55:00
1:15 AM,71.1,69.4,95,29.93,10.0,NE,12.7,19.6,N/A,,Overcast,40,2013-08-26 06:15:00
1:35 AM,69.1,67.5,95,29.93,10.0,East,10.4,17.3,N/A,,Overcast,90,2013-08-26 06:35:00
1:55 AM,68.9,66.7,93,29.92,10.0,East,13.8,18.4,N/A,,Overcast,90,2013-08-26 06:55:00
2:15 AM,69.3,67.5,94,29.94,10.0,ESE,5.8,-,N/A,,Overcast,110,2013-08-26 07:15:00
2:35 AM,69.1,68.0,96,29.93,10.0,Calm,Calm,-,0.01,Rain,Light Rain,0,2013-08-26 07:35:00
2:55 AM,69.4,68.7,98,29.93,10.0,South,3.5,-,0.01,Rain,Light Rain,190,2013-08-26 07:55:00
3:15 AM,69.8,68.9,97,29.94,10.0,Calm,Calm,-,N/A,,Overcast,0,2013-08-26 08:15:00
3:35 AM,69.4,68.9,98,29.94,7.0,Calm,Calm,-,N/A,,Overcast,0,2013-08-26 08:35:00
3:55 AM,68.7,68.2,98,29.94,7.0,West,5.8,-,N/A,,Scattered Clouds,260,2013-08-26 08:55:00
4:15 AM,68.9,68.4,98,29.93,10.0,West,3.5,-,N/A,,Scattered Clouds,270,2013-08-26 09:15:00
4:35 AM,68.9,68.4,98,29.93,7.0,West,3.5,-,N/A,,Scattered Clouds,280,2013-08-26 09:35:00
4:55 AM,67.5,66.7,98,29.93,4.0,Calm,Calm,-,N/A,,Clear,0,2013-08-26 09:55:00
5:15 AM,68.0,67.8,99,29.93,4.0,Calm,Calm,-,N/A,,Clear,0,2013-08-26 10:15:00
5:35 AM,66.7,66.4,99,29.93,1.2,Calm,Calm,-,N/A,,Mist,0,2013-08-26 10:35:00
5:55 AM,67.8,67.5,99,29.95,4.0,Calm,Calm,-,N/A,,Clear,0,2013-08-26 10:55:00
6:15 AM,67.1,67.1,100,29.96,3.0,ESE,3.5,-,N/A,,Clear,120,2013-08-26 11:15:00
6:35 AM,67.8,67.6,99,29.96,1.8,Calm,Calm,-,N/A,,Mostly Cloudy,0,2013-08-26 11:35:00
6:55 AM,68.2,68.0,99,29.96,1.2,Calm,Calm,-,0.01,,Mostly Cloudy,0,2013-08-26 11:55:00
7:15 AM,69.1,68.9,99,29.97,2.5,Calm,Calm,-,N/A,,Scattered Clouds,0,2013-08-26 12:15:00
7:35 AM,69.8,69.4,99,29.97,4.0,Calm,Calm,-,N/A,,Clear,0,2013-08-26 12:35:00
7:55 AM,70.5,70.2,99,29.97,5.0,Calm,Calm,-,N/A,,Clear,0,2013-08-26 12:55:00
8:15 AM,70.7,70.2,98,29.97,7.0,Calm,Calm,-,N/A,,Clear,0,2013-08-26 13:15:00
8:35 AM,71.6,70.9,98,29.97,5.0,Calm,Calm,-,N/A,,Clear,0,2013-08-26 13:35:00
8:55 AM,72.7,71.6,96,29.96,7.0,Calm,Calm,-,N/A,,Clear,0,2013-08-26 13:55:00
9:15 AM,73.4,72.0,95,29.96,7.0,Calm,Calm,-,N/A,,Clear,0,2013-08-26 14:15:00
9:35 AM,75.9,72.7,90,29.96,10.0,Calm,Calm,-,N/A,,Clear,0,2013-08-26 14:35:00
9:55 AM,78.1,74.1,88,29.95,10.0,Calm,Calm,-,N/A,,Clear,0,2013-08-26 14:55:00
10:15 AM,79.2,74.5,86,29.96,10.0,Calm,Calm,-,N/A,,Clear,0,2013-08-26 15:15:00
10:35 AM,80.4,75.2,84,29.96,10.0,Calm,Calm,-,N/A,,Clear,0,2013-08-26 15:35:00
10:55 AM,81.0,75.7,84,29.96,10.0,ENE,4.6,-,N/A,,Clear,70,2013-08-26 15:55:00
11:15 AM,81.9,75.4,81,29.96,10.0,ENE,3.5,-,N/A,,Clear,70,2013-08-26 16:15:00
11:35 AM,82.4,75.7,80,29.95,10.0,East,4.6,-,N/A,,Clear,100,2013-08-26 16:35:00
11:55 AM,83.1,76.1,79,29.95,10.0,NE,5.8,-,N/A,,Clear,50,2013-08-26 16:55:00
12:15 PM,83.3,76.1,79,29.94,10.0,NE,5.8,-,N/A,,Clear,50,2013-08-26 17:15:00
12:35 PM,81.9,74.7,79,29.94,10.0,ENE,8.1,-,N/A,,Clear,70,2013-08-26 17:35:00
12:55 PM,80.8,74.1,80,29.94,10.0,NNE,9.2,-,N/A,,Clear,30,2013-08-26 17:55:00
1:15 PM,80.6,73.9,80,29.94,10.0,NE,10.4,-,N/A,,Clear,40,2013-08-26 18:15:00
1:35 PM,80.1,73.4,80,29.94,10.0,ENE,12.7,-,N/A,,Clear,70,2013-08-26 18:35:00
1:55 PM,79.5,71.2,76,29.93,10.0,ENE,10.4,17.3,N/A,,Clear,70,2013-08-26 18:55:00
2:15 PM,79.0,70.7,76,29.93,10.0,ENE,10.4,-,N/A,,Clear,70,2013-08-26 19:15:00
2:35 PM,80.6,71.2,73,29.92,10.0,ENE,9.2,-,N/A,,Clear,70,2013-08-26 19:35:00
2:55 PM,80.2,70.3,72,29.92,10.0,ENE,8.1,-,N/A,,Clear,70,2013-08-26 19:55:00
3:15 PM,79.5,70.0,72,29.91,10.0,ENE,6.9,-,N/A,,Clear,60,2013-08-26 20:15:00
3:35 PM,77.5,68.9,75,29.91,10.0,ENE,10.4,-,N/A,,Clear,60,2013-08-26 20:35:00
3:55 PM,77.4,69.1,76,29.91,10.0,NE,9.2,-,N/A,,Clear,50,2013-08-26 20:55:00
4:15 PM,77.2,69.1,76,29.90,10.0,ENE,10.4,-,N/A,,Clear,60,2013-08-26 21:15:00
4:35 PM,75.6,68.4,78,29.91,10.0,NE,10.4,-,N/A,,Clear,40,2013-08-26 21:35:00
4:55 PM,74.3,68.0,81,29.90,10.0,ENE,9.2,-,N/A,,Scattered Clouds,60,2013-08-26 21:55:00
5:15 PM,73.9,68.0,82,29.88,10.0,NE,5.8,-,N/A,,Mostly Cloudy,50,2013-08-26 22:15:00
5:35 PM,72.7,67.5,84,29.88,10.0,North,5.8,-,N/A,,Mostly Cloudy,10,2013-08-26 22:35:00
5:55 PM,70.9,68.0,91,29.90,2.5,ENE,12.7,-,0.12,Rain,Heavy Rain,70,2013-08-26 22:55:00
6:15 PM,71.1,68.9,93,29.88,7.0,NNE,11.5,-,0.01,Rain,Light Rain,30,2013-08-26 23:15:00
6:35 PM,70.0,68.2,94,29.88,10.0,ENE,6.9,-,0.02,Rain,Rain,70,2013-08-26 23:35:00
6:55 PM,69.3,68.0,96,29.88,7.0,NE,8.1,-,0.02,,Light Drizzle,50,2013-08-26 23:55:00
7:15 PM,70.7,69.1,95,29.91,7.0,NE,8.1,-,0.01,Rain,Light Rain,40,2013-08-27 00:15:00
7:35 PM,72.0,70.7,96,29.92,5.0,North,8.1,-,0.06,Rain,Heavy Rain,350,2013-08-27 00:35:00
7:55 PM,73.4,72.5,97,29.91,5.0,SE,9.2,-,0.12,Rain,Rain,130,2013-08-27 00:55:00
8:15 PM,72.1,71.6,98,29.92,4.0,SW,6.9,-,0.01,Rain,Light Rain,220,2013-08-27 01:15:00
8:35 PM,72.5,71.6,97,29.89,5.0,East,9.2,-,0.02,Rain,Light Rain,100,2013-08-27 01:35:00
8:55 PM,72.5,70.9,95,29.88,10.0,NE,8.1,16.1,0.03,,Mostly Cloudy,50,2013-08-27 01:55:00
9:15 PM,72.0,70.9,96,29.89,10.0,Calm,Calm,-,N/A,,Overcast,0,2013-08-27 02:15:00
9:35 PM,71.1,70.7,99,29.88,7.0,NE,3.5,-,N/A,,Mostly Cloudy,50,2013-08-27 02:35:00
9:55 PM,70.7,70.2,98,29.91,7.0,Calm,Calm,-,N/A,,Mostly Cloudy,0,2013-08-27 02:55:00
10:15 PM,70.2,69.8,99,29.89,7.0,North,4.6,-,N/A,,Mostly Cloudy,360,2013-08-27 03:15:00
10:35 PM,68.9,68.4,98,29.88,10.0,NNE,5.8,-,N/A,,Mostly Cloudy,20,2013-08-27 03:35:00
10:55 PM,68.5,68.2,99,29.89,7.0,NE,4.6,-,N/A,,Scattered Clouds,40,2013-08-27 03:55:00
11:15 PM,68.4,68.0,99,29.89,7.0,ENE,5.8,-,0.01,Rain,Light Rain,70,2013-08-27 04:15:00
11:35 PM,68.2,67.6,98,29.90,10.0,NE,6.9,-,0.01,Rain,Light Rain,50,2013-08-27 04:35:00
11:55 PM,68.4,67.6,98,29.88,10.0,ENE,6.9,-,0.01,,Overcast,70,2013-08-27 04:55:00